Regional Weather Roundup
Issued by NWS Kansas City/Pleasant Hill, MO

Home | Current Version | Previous Version | Graphics & Text | Print | Product List | Glossary Off
Versions: 1 2 3 4 5 6 7 8 9 10 11 12 13 14 15 16 17 18 19 20 21 22 23 24 25 26 27 28 29 30 31 32 33 34 35 36 37 38 39 40 41 42 43 44 45 46 47 48 49 50

000
ASUS43 KEAX 222310
RWREAX

WEATHER ROUNDUP FOR EASTERN KANSAS AND NORTHWEST MISSOURI
NATIONAL WEATHER SERVICE KANSAS CITY/PLEASANT HILL MO
600 PM CDT FRI MAY 22 2015

KSZ040-057-103>105-MOZ028-029-037-043-230000-
...KANSAS CITY METROPOLITAN AREA...

CITY           SKY/WX    TMP DP  RH WIND       PRES   REMARKS
K.C. INTL      CLOUDY    64  50  60 S6        30.22F
K.C. DOWNTOWN  CLOUDY    66  47  50 SE7       30.22S
LEES SUMMIT    CLOUDY    63  53  70 S5        30.23F
OLATHE - IXD   CLOUDY    62  50  64 SE8       30.22F
OLATHE - OJC   CLOUDY    62  50  64 SE9       30.22F
LAWRENCE       CLOUDY    63  46  54 SE7       30.22S

$$

MOZ001>008-011>017-020>025-030>033-038>040-044>046-053-054-230000-
...NORTHERN AND CENTRAL MISSOURI...

CITY           SKY/WX    TMP DP  RH WIND       PRES   REMARKS
ST. JOSEPH     CLOUDY    65  49  56 SE8       30.22F
MOSBY          CLOUDY    64  50  59 CALM      30.22F
WARRENSBURG    CLOUDY    64  50  59 E3        30.23R
WHITEMAN AFB   CLOUDY    66  53  61 SE5       30.22S
CLINTON        CLOUDY    66  54  63 SE6       30.22S
SEDALIA        CLOUDY    67  51  56 E8        30.23F
WARSAW         NOT AVBL
CHILLICOTHE      N/A     70  54  56 VRB3      30.24S
KIRKSVILLE     CLOUDY    66  54  65 SW6       30.24S

$$

MOZ041-047>049-056>058-063>065-088>090-097-230000-
...EASTERN AND SOUTHERN MISSOURI...

CITY           SKY/WX    TMP DP  RH WIND       PRES   REMARKS
ST. LOUIS INTL CLOUDY    74  49  41 W8        30.23F
SPIRIT OF STL  PTSUNNY   74  52  46 W6        30.22S
COLUMBIA       PTSUNNY   67  53  61 S6        30.25R
JEFFERSON CITY CLOUDY    70  48  45 SW6       30.24R
ROLLA          CLOUDY    68  50  52 S5        30.24R
OSAGE BEACH    CLOUDY    66  52  59 E3        30.24F
SPRINGFIELD    CLOUDY    64  47  53 SE9       30.21S
BRANSON        CLOUDY    63  48  59 E6        30.23F
JOPLIN         CLOUDY    65  48  54 SE12      30.20S
WEST PLAINS    CLOUDY    65  49  56 E6        30.26F

$$

IAZ060-094-KSZ022-034>040-054-083-096-NEZ052-066-093-230000-
...KANSAS...SOUTHEAST NEBRASKA AND IOWA...

CITY           SKY/WX    TMP DP  RH WIND       PRES   REMARKS
TOPEKA         CLOUDY    65  47  52 E12       30.20F
MANHATTAN      CLOUDY    64  50  60 SE8       30.17F
EMPORIA        CLOUDY    62  47  57 SE10      30.19R
CHANUTE        CLOUDY    62  50  64 SE7       30.19S
WICHITA        CLOUDY    62  54  74 SE13      30.14S
OMAHA          PTSUNNY   65  47  52 E9        30.20F
LINCOLN        CLOUDY    63  45  51 S10       30.20F
FALLS CITY     CLOUDY    65  46  50 SE8       30.20F
LAMONI         LGT RAIN  65  53  65 SW10      30.23S
DES MOINES     CLOUDY    74  39  28 SW6       30.19S

$$




USA.gov is the U.S. government's official web portal to all federal, state and local government web resources and services.